Location: Newark
(34.0111°N, 88.4892°W)
Time: 09:07:56
(UTC+00:00)

METEOR M2 - Visible Passes

Search period start: 06 June 2020 00:00
Search period end: 16 June 2020 00:00
Orbit: 819 x 827 km, 98.5° (Epoch: 05 June)

Date Brightness Start Highest point End Pass type
(mag) Time Alt. Az. Time Alt. Az. Time Alt. Az.
06 Jun ? 01:35:31 10° S 01:40:52 80° WSW 01:46:16 10° NNW visible
07 Jun ? 02:59:26 10° WSW 03:01:32 12° W 03:03:40 10° WNW visible
08 Jun ? 02:37:37 10° SW 02:41:27 20° W 02:45:20 10° NW visible
09 Jun ? 02:16:43 10° SSW 02:21:26 31° W 02:26:10 10° NW visible
10 Jun ? 01:56:17 10° S 02:01:27 49° W 02:06:40 10° NNW visible
11 Jun ? 01:36:11 10° S 01:41:32 78° WSW 01:46:55 10° NNW visible
12 Jun ? 03:00:16 10° WSW 03:02:14 12° W 03:04:10 10° WNW visible
13 Jun ? 02:38:20 10° SW 02:42:08 20° W 02:45:56 10° NW visible
14 Jun ? 02:17:25 10° SSW 02:22:06 30° W 02:26:48 10° NW visible
15 Jun ? 01:56:58 10° S 02:02:07 48° W 02:07:19 10° NNW visible
